Hebron, NE

1:49 PM CDT on May 29, 2017 (GMT -0500)
Hebron Municipal

Weather History for KHJH - January, 2014

Change the Weather History Date:

Friday, January 24, 2014

  Actual Average Record
Temperature  
Mean Temperature 32 °F -  
Max Temperature 54 °F 37 °F 66 °F (1981)
Min Temperature 11 °F 17 °F -10 °F (1963)
Degree Days  
Heating Degree Days 32    
Moisture  
Dew Point 15 °F    
Average Humidity 48    
Maximum Humidity 71    
Minimum Humidity 27    
Precipitation  
Precipitation 0.00 in - - ()
Sea Level Pressure  
Sea Level Pressure 30.06 in    
Wind  
Wind Speed 14 mph (WSW)    
Max Wind Speed 18 mph    
Max Gust Speed 29 mph    
Visibility 10 miles    
Events Rain    
Averages and records for this station are not official NWS values.
T = Trace of Precipitation, MM = Missing Value Source: NWS Daily Summary

Daily Weather History Graph

Daily Weather History Graph

Search for Another Location

Airport or City:

Trip Planner

Search our weather history database for the weather conditions in past years. The results will help you decide how hot, cold, wet, or windy it might be!

Date:

Astronomy

Jan. 24, 2014 Rise Set
Actual Time 7:45 AM CST 5:39 PM CST
Civil Twilight 7:16 AM CST 6:08 PM CST
Nautical Twilight 6:43 AM CST 6:41 PM CST
Astronomical Twilight 6:11 AM CST 7:14 PM CST
Moon 1:14 AM CST (1/24) 11:59 AM CST (1/24)
Length of Visible Light 10h 52m
Length of Day
9h 53m
Last Quarter, 44% of the Moon is Illuminated
Jan 24
Last Quarter
Jan 30
New
Feb 6
First Quarter
Feb 14
Full
Feb 22
Last Quarter

Hourly Weather History & Observations

Time (CST) Temp. Windchill Dew Point Humidity Pressure Visibility Wind Dir Wind Speed Gust Speed Precip Events Conditions
12:15 AM 12.2 °F -3.7 °F -10.1 °F 36% 30.49 in 10.0 mi SW 15.0 mph 23.0 mph N/A   Clear
12:35 AM 12.0 °F -4.5 °F -8.7 °F 39% 30.47 in 10.0 mi SW 16.1 mph 23.0 mph N/A   Clear
12:55 AM 11.7 °F -3.8 °F -7.2 °F 43% 30.46 in 10.0 mi SW 13.8 mph 23.0 mph N/A   Clear
1:15 AM 12.0 °F -3.4 °F -5.3 °F 46% 30.44 in 10.0 mi SW 13.8 mph 23.0 mph N/A   Clear
1:35 AM 11.8 °F -4.2 °F -4.0 °F 49% 30.42 in 10.0 mi SW 15.0 mph 20.7 mph N/A   Clear
1:55 AM 11.8 °F -3.0 °F -3.3 °F 51% 30.41 in 10.0 mi SW 12.7 mph 21.9 mph N/A   Clear
2:15 AM 11.8 °F -3.6 °F -2.2 °F 53% 30.39 in 10.0 mi SW 13.8 mph 19.6 mph N/A   Clear
2:35 AM 11.7 °F -3.2 °F -1.3 °F 56% 30.38 in 10.0 mi SW 12.7 mph 20.7 mph N/A   Clear
2:55 AM 11.3 °F -4.3 °F -0.4 °F 59% 30.36 in 10.0 mi SW 13.8 mph 21.9 mph N/A   Clear
3:15 AM 11.7 °F -3.8 °F 0.5 °F 61% 30.36 in 10.0 mi SW 13.8 mph 23.0 mph N/A   Clear
3:35 AM 11.7 °F -3.8 °F 1.4 °F 63% 30.35 in 10.0 mi SW 13.8 mph 20.7 mph N/A   Clear
3:55 AM 11.7 °F -3.8 °F 2.1 °F 66% 30.33 in 10.0 mi SW 13.8 mph 18.4 mph N/A   Clear
4:15 AM 12.0 °F -4.0 °F 2.8 °F 67% 30.31 in 10.0 mi SW 15.0 mph 20.7 mph N/A   Clear
4:35 AM 12.6 °F -3.8 °F 3.6 °F 67% 30.28 in 10.0 mi SW 16.1 mph 20.7 mph N/A   Clear
4:55 AM 12.9 °F -3.4 °F 3.9 °F 67% 30.26 in 10.0 mi SW 16.1 mph 24.2 mph N/A   Clear
5:15 AM 13.1 °F -3.7 °F 4.3 °F 68% 30.24 in 10.0 mi SW 17.3 mph 26.5 mph N/A   Clear
5:35 AM 13.6 °F -3.0 °F 4.8 °F 68% 30.23 in 10.0 mi SW 17.3 mph 24.2 mph N/A   Clear
5:55 AM 14.2 °F -1.7 °F 5.4 °F 68% 30.22 in 10.0 mi WSW 16.1 mph 23.0 mph N/A   Clear
6:15 AM 14.4 °F -1.5 °F 5.7 °F 69% 30.21 in 10.0 mi WSW 16.1 mph 23.0 mph N/A   Clear
6:35 AM 14.0 °F -0.8 °F 5.9 °F 70% 30.21 in 10.0 mi WSW 13.8 mph 24.2 mph N/A   Clear
6:55 AM 14.4 °F -2.0 °F 6.4 °F 71% 30.20 in 10.0 mi SW 17.3 mph 24.2 mph N/A   Clear
7:15 AM 14.2 °F -2.3 °F 6.4 °F 71% 30.16 in 10.0 mi SW 17.3 mph 25.3 mph N/A   Clear
7:35 AM 14.5 °F -1.3 °F 6.8 °F 71% 30.15 in 10.0 mi SW 16.1 mph 23.0 mph N/A   Clear
7:55 AM 15.3 °F -0.9 °F 7.3 °F 71% 30.14 in 10.0 mi SW 17.3 mph 24.2 mph N/A   Clear
8:15 AM 16.3 °F 0.1 °F 7.7 °F 69% 30.13 in 10.0 mi SW 18.4 mph 26.5 mph N/A   Clear
8:35 AM 16.7 °F 2.0 °F 8.2 °F 69% 30.13 in 10.0 mi SW 15.0 mph 23.0 mph N/A   Clear
8:55 AM 17.8 °F 4.6 °F 8.6 °F 67% 30.12 in 10.0 mi WSW 12.7 mph 20.7 mph N/A   Clear
9:15 AM 20.1 °F 6.4 °F 9.3 °F 63% 30.12 in 10.0 mi WSW 15.0 mph 20.7 mph N/A   Clear
9:35 AM 21.6 °F 8.8 °F 9.5 °F 60% 30.11 in 10.0 mi WSW 13.8 mph 23.0 mph N/A   Clear
9:55 AM 23.7 °F 11.5 °F 10.0 °F 56% 30.10 in 10.0 mi WSW 13.8 mph 20.7 mph N/A   Clear
10:15 AM 27.0 °F 15.2 °F 10.2 °F 49% 30.10 in 10.0 mi WSW 15.0 mph 21.9 mph N/A   Clear
10:35 AM 29.7 °F 18.2 °F 10.2 °F 44% 30.10 in 10.0 mi WSW 16.1 mph - N/A   Clear
10:55 AM 30.9 °F 20.7 °F 10.2 °F 42% 30.09 in 10.0 mi West 13.8 mph - N/A   Scattered Clouds
11:15 AM 32.5 °F 22.7 °F 10.2 °F 39% 30.09 in 10.0 mi WSW 13.8 mph 19.6 mph N/A   Mostly Cloudy
11:35 AM 34.3 °F 25.9 °F 10.6 °F 37% 30.06 in 10.0 mi WSW 11.5 mph 17.3 mph N/A   Overcast
11:55 AM 36.9 °F 28.7 °F 11.1 °F 35% 30.05 in 10.0 mi WSW 12.7 mph - N/A   Overcast
12:15 PM 39.7 °F 33.2 °F 11.3 °F 31% 30.03 in 10.0 mi WSW 10.4 mph - N/A   Mostly Cloudy
12:35 PM 42.4 °F 36.1 °F 12.7 °F 30% 30.00 in 10.0 mi WSW 11.5 mph - N/A   Scattered Clouds
12:55 PM 43.9 °F 37.5 °F 13.3 °F 29% 29.98 in 10.0 mi WSW 12.7 mph 17.3 mph N/A   Mostly Cloudy
1:15 PM 47.5 °F - 15.1 °F 27% 29.96 in 10.0 mi West 9.2 mph 17.3 mph N/A   Mostly Cloudy
1:35 PM 48.6 °F - 15.8 °F 27% 29.95 in 10.0 mi West 15.0 mph 20.7 mph N/A   Scattered Clouds
1:55 PM 50.2 °F - 16.9 °F 27% 29.93 in 10.0 mi West 12.7 mph 19.6 mph N/A   Clear
2:15 PM 52.0 °F - 18.7 °F 27% 29.91 in 10.0 mi WSW 12.7 mph 16.1 mph N/A   Clear
2:35 PM 53.8 °F - 22.1 °F 29% 29.90 in 10.0 mi WNW 17.3 mph 23.0 mph N/A   Clear
2:55 PM 54.9 °F - 23.9 °F 30% 29.89 in 10.0 mi WNW 17.3 mph 26.5 mph N/A   Scattered Clouds
3:15 PM 54.1 °F - 22.1 °F 29% 29.89 in 10.0 mi WNW 13.8 mph 26.5 mph N/A   Mostly Cloudy
3:35 PM 54.0 °F - 21.2 °F 28% 29.90 in 10.0 mi West 15.0 mph 21.9 mph N/A   Mostly Cloudy
3:55 PM 54.3 °F - 21.9 °F 28% 29.89 in 10.0 mi WNW 12.7 mph - N/A   Scattered Clouds
4:15 PM 54.1 °F - 22.6 °F 29% 29.89 in 10.0 mi West 12.7 mph - N/A   Mostly Cloudy
4:35 PM 54.0 °F - 23.2 °F 30% 29.89 in 10.0 mi WNW 9.2 mph 17.3 mph N/A   Overcast
4:55 PM 53.8 °F - 27.5 °F 36% 29.89 in 10.0 mi WNW 13.8 mph 18.4 mph N/A   Overcast
5:15 PM 53.6 °F - 28.9 °F 39% 29.89 in 10.0 mi WNW 9.2 mph 18.4 mph N/A   Overcast
5:30 PM 52.9 °F - 30.0 °F 42% 29.88 in 10.0 mi West 11.5 mph 28.8 mph N/A Rain Light Rain
5:55 PM 52.7 °F - 31.3 °F 44% 29.86 in 10.0 mi West 12.7 mph 19.6 mph N/A   Scattered Clouds
6:15 PM 51.8 °F - 30.2 °F 44% 29.86 in 10.0 mi West 8.1 mph - N/A   Scattered Clouds
6:35 PM 50.9 °F - 30.0 °F 45% 29.86 in 10.0 mi West 8.1 mph - N/A   Overcast
6:55 PM 50.4 °F - 29.7 °F 45% 29.85 in 10.0 mi WSW 10.4 mph - N/A   Overcast
7:15 PM 50.4 °F - 29.3 °F 44% 29.84 in 10.0 mi WSW 12.7 mph - N/A   Overcast
7:35 PM 50.2 °F - 29.3 °F 45% 29.83 in 10.0 mi WSW 11.5 mph - N/A   Overcast
7:55 PM 50.2 °F - 29.3 °F 45% 29.83 in 10.0 mi WSW 11.5 mph - N/A   Overcast
8:15 PM 50.7 °F - 29.3 °F 44% 29.82 in 10.0 mi WSW 12.7 mph - N/A   Overcast
8:35 PM 50.5 °F - 28.4 °F 42% 29.81 in 10.0 mi WSW 11.5 mph - N/A   Overcast
8:55 PM 50.2 °F - 28.4 °F 43% 29.81 in 10.0 mi West 13.8 mph 19.6 mph N/A   Overcast
9:15 PM 49.3 °F - 28.4 °F 45% 29.81 in 10.0 mi West 12.7 mph - N/A   Scattered Clouds
9:35 PM 49.5 °F - 28.4 °F 44% 29.81 in 10.0 mi West 10.4 mph - N/A   Mostly Cloudy
9:55 PM 50.7 °F - 29.1 °F 43% 29.82 in 10.0 mi WNW 17.3 mph 23.0 mph N/A   Mostly Cloudy
10:15 PM 50.9 °F - 29.3 °F 43% 29.82 in 10.0 mi WNW 13.8 mph - N/A   Scattered Clouds
10:40 PM 51.4 °F - 29.5 °F 43% 29.83 in 10.0 mi WNW 17.3 mph 24.2 mph N/A   Scattered Clouds
10:55 PM 50.9 °F - 29.7 °F 44% 29.83 in 10.0 mi WNW 17.3 mph 23.0 mph N/A   Clear
11:15 PM 50.4 °F - 30.2 °F 46% 29.83 in 10.0 mi WNW 16.1 mph 25.3 mph N/A   Clear
11:35 PM 49.3 °F - 30.2 °F 48% 29.84 in 10.0 mi WNW 15.0 mph 21.9 mph N/A   Clear
11:55 PM 46.6 °F - 30.2 °F 53% 29.86 in 10.0 mi WNW 9.2 mph - N/A   Clear